Location: Andiroba
(19.8650°S, 43.9258°W)
Time: 23:38:33
(UTC+00:00)

USA 215 - Pass Details

Date: 15 June 2024
Orbit: 1100 x 1107 km, 123.0° (Epoch: 22 April)

Event Time Altitude Azimuth Distance (km) Brightness Sun altitude
Rises 07:41:37 0° 62° (ENE) 3,908 7.5 -24.3°
Reaches altitude 10° 07:44:17 10° 70° (ENE) 2,954 6.6 -23.7°
Maximum altitude 07:50:08 36° 134° (SE) 1,662 4.4 -22.4°
Enters shadow 07:55:28 12° 195° (SSW) 2,784 5.1 -21.2°
